Regional Weather Roundup
Issued by NWS Green Bay, WI

Home | Current Version | Previous Version | Text Only | Print | Product List | Glossary On
Versions: 1 2 3 4 5 6 7 8 9 10 11 12 13 14 15 16 17 18 19 20 21 22 23 24 25 26 27 28 29 30 31 32 33 34 35 36 37 38 39 40 41 42 43 44 45 46 47 48 49 50
000
ASUS43 KGRB 050200
RWRGRB

NORTH-CENTRAL AND NORTHEAST WISCONSIN REGIONAL WEATHER ROUNDUP
NATIONAL WEATHER SERVICE GREEN BAY WI
900 PM CDT FRI SEP 04 2015

WIZ005-009-010>012-018-019-050300-
NORTH CENTRAL WISCONSIN

CITY           SKY/WX    TMP DP  RH WIND       PRES   REMARKS
IRONWOOD       CLEAR     72  66  83 E6        29.99S
MANITOWISH WTR NOT AVBL
ARBOR VITAE    NOT AVBL
EAGLE RIVER    NOT AVBL
LAND O LAKES   NOT AVBL
RHINELANDER    CLEAR     70  65  84 SE5       30.08R
PHILLIPS       CLOUDY    74  67  80 SE5       30.04S
ANTIGO         NOT AVBL
TOMAHAWK       NOT AVBL
MERRILL        CLEAR     71  67  87 SE5       30.07S
$$

WIZ013-073-050300-
NORTHEAST WISCONSIN

CITY           SKY/WX    TMP DP  RH WIND       PRES   REMARKS
IRON MOUNTAIN  CLEAR     69  64  84 SE5       30.08R
MARINETTE      CLEAR     64  61  88 NE3       30.06S
OCONTO         PTCLDY    66  66 100 E3        30.05F
$$

WIZ017-030-035>037-045-050300-
CENTRAL WISCONSIN

CITY           SKY/WX    TMP DP  RH WIND       PRES   REMARKS
MEDFORD        NOT AVBL
WAUSAU         CLEAR     71  66  84 E7        30.04R
MOSINEE        NOT AVBL
MARSHFIELD     CLEAR     71  65  81 SE6       30.05R
WISC RAPIDS    CLEAR     71  65  81 SE5       30.06R
STEVENS POINT  NOT AVBL
WAUPACA        NOT AVBL
SHAWANO        NOT AVBL
CLINTONVILLE   NOT AVBL
WAUTOMA        NOT AVBL
$$

WIZ038-039-048-051-050300-
FOX VALLEY

CITY           SKY/WX    TMP DP  RH WIND       PRES   REMARKS
NWS GREEN BAY  CLEAR     68  65  90 SE5       30.07R
APPLETON       CLOUDY    72  64  78 VRB5      30.05R
OSHKOSH        CLEAR     69  65  86 E6        30.05R
FOND DU LAC    PTCLDY    69  66  90 E7        30.06R
$$

WIZ022-050-052-050300-
EAST CENTRAL WISCONSIN

CITY           SKY/WX    TMP DP  RH WIND       PRES   REMARKS
EPHRAIM        NOT AVBL
STURGEON BAY   CLOUDY    68  64  88 CALM      30.09S
MANITOWOC      CLOUDY    66  64  94 MISG      30.07R FOG
SHEBOYGAN      PTCLDY    64  63  96 CALM      30.07R FOG
$$

LMZ563-521-522-541>543-050300-
LAKESHORE

STATION/POSITION TIME  TEMP    WIND        PRES    VSBY  WAVE
                       AIR SEA DIR/SP/G                  HT/PER
                 (UTC) (F)     (DEG/KT/KT) (MB)    (MI)  (FT/S)
SHEBOYGAN LKSHOR 0100   59     360/  7/  7 1018.0R
KEWAUNEE LKSHORE 0100   67     340/  2/  3 1016.8R
ALGOMA MARINA    0114             CALM       N/A
NORTHPORT PIER   0100   68      CALM  /  4 1017.6R
N MID LAKE BUOY  0050   68 67   30/  4/  4 1017.2R         1/ 3
S GREEN BAY BUOY 0100   68 67   80/  2/  4 1019.0R
SISTER BAY LKSHO 0111   68        CALM       N/A
CHAMBERS ISLAND  0100   68     110/  1/  3 1017.9R
MENOMINEE LKSHOR 0100   67     330/  4/  4 1016.8R
$$



USA.gov is the U.S. government's official web portal to all federal, state and local government web resources and services.